Content
SEND FEEDBACK

Daily
Averages
Monthly
Summary
United States of America

BEDFORD PARK, ILLINOIS


Home > North America > United States > Illinois
Elevation: 623 feet     Latitude: 41 46N     Longitude: 087 45W

WEATHER
 
SELECT A DAY
Number of Records: 189,522;   Date Range: 1/1/95 - 9/3/14
 
SHARE

PRINT THIS DATA

[ ← Previous Day ]
WEATHER ALMANAC - NOVEMBER 12, 2013
[ Next Day → ]
[ °C ]   °F
Weather ElementAverageHighLow
Temperature27.8 °F33.1 °F (1:51 pm)24.1 °F (11:51 pm)
Dewpoint15.8 °F19 °F (9:51 am)12.9 °F (3:51 pm)
Humidity61.2 %71 % (11:51 pm)45 % (3:51 pm)
Barometer30.67 in30.74 in (10:51 am)30.55 in (1:51 am)
Wind Speed10.9 mph15 mph (2:51 am)
Wind Gust19.6 mph (2:51 pm)
Weather ElementAverage
Visibility10 mi
Wind DirectionWNW (301.7 °)

Weather ElementTotal
Precipitation---
Heating Degree Days36.4 (Base 65)
Averaged from 23 records on November 12, 2013
WEATHER CONDITIONS BREAKOUT
WIND DIRECTION BREAKOUT
WEATHER BY HOUR - NOVEMBER 12, 2013
[ °C ]   °F
Local TimeTemperatureDewpointHumidityBarometerVisibilityWind DirectionWind SpeedGust SpeedPrecipitationEventsConditions
1:51 AM26.1 °F15.1 °F63 %30.55 in10.0 miNNW (330°)13.8 mphPartly Cloudy
2:51 AM25.0 °F15.1 °F66 %30.57 in10.0 miNNW (330°)15.0 mphPartly Cloudy
3:51 AM25.0 °F15.1 °F66 %30.60 in10.0 miNNW (330°)15.0 mphPartly Cloudy
4:51 AM25.0 °F15.1 °F66 %30.63 in10.0 miNNW (330°)15.0 mphPartly Cloudy
5:51 AM25.0 °F16.0 °F69 %30.66 in10.0 miNW (320°)15.0 mphPartly Cloudy
6:51 AM25.0 °F16.0 °F69 %30.67 in10.0 miNNW (330°)15.0 mphPartly Cloudy
7:51 AM26.1 °F17.1 °F69 %30.70 in10.0 miNNW (330°)15.0 mphPartly Cloudy
8:51 AM27.0 °F17.1 °F66 %30.73 in10.0 miNW (320°)13.8 mphPartly Cloudy
9:51 AM28.9 °F19.0 °F67 %30.73 in10.0 miNW (310°)9.2 mphPartly Cloudy
10:51 AM30.0 °F18.0 °F61 %30.74 in10.0 miNNW (330°)8.1 mphPartly Cloudy
11:51 AM30.9 °F16.0 °F54 %30.72 in10.0 miWNW (300°)8.1 mphPartly Cloudy
12:51 PM32.0 °F16.0 °F52 %30.71 in10.0 miNNW (330°)9.2 mphPartly Cloudy
1:51 PM33.1 °F16.0 °F50 %30.69 in10.0 miNW (310°)9.2 mphPartly Cloudy
2:51 PM33.1 °F14.0 °F46 %30.69 in10.0 miWNW (290°)10.4 mph19.6 mphPartly Cloudy
3:51 PM32.0 °F12.9 °F45 %30.68 in10.0 miWNW (290°)10.4 mphPartly Cloudy
4:51 PM30.0 °F14.0 °F51 %30.67 in10.0 miWest (280°)8.1 mphPartly Cloudy
5:51 PM28.9 °F16.0 °F58 %30.67 in10.0 miWest (270°)9.2 mphClear
6:51 PM28.0 °F16.0 °F61 %30.67 in10.0 miWest (270°)9.2 mphClear
7:51 PM27.0 °F16.0 °F63 %30.67 in10.0 miWest (280°)10.4 mphClear
8:51 PM26.1 °F16.0 °F66 %30.66 in10.0 miWest (270°)8.1 mphPartly Cloudy
9:51 PM26.1 °F15.1 °F63 %30.66 in10.0 miWest (280°)8.1 mphPartly Cloudy
10:51 PM25.0 °F15.1 °F66 %30.65 in10.0 miWSW (250°)8.1 mphPartly Cloudy
11:51 PM24.1 °F16.0 °F71 %30.64 in10.0 miWest (260°)8.1 mphPartly Cloudy
Hourly data recorded from KMDW, located miles away from Bedford Park, Illinois







STORIES FROM OUR PARTNERS